Location: Alafon
(8.4500°N, 4.2333°E)
Time: 12:47:20
(UTC+00:00)

Vanguard 1 Rocket - Pass Details

Date: 28 July 2021
Orbit: 650 x 4226 km, 34.3° (Epoch: 27 September)

Event Time Altitude Azimuth Distance (km) Brightness Sun altitude
Exits shadow 03:52:37 - 202° (SSW) 7,034 11.5 -24.2°
Reaches altitude 10° 03:56:16 10° 194° (SSW) 6,779 11.5 -23.4°
Maximum altitude 04:13:40 23° 148° (SSE) 6,307 11.7 -19.4°
Drops below altitude 10° 04:31:22 10° 103° (ESE) 7,074 12.7 -15.4°
Sets 04:38:24 0° 91° (E) 7,692 13.5 -13.8°
